Location: Brunsen
(51.8651°N, 9.8610°E)
Time: 14:04:23
(UTC+00:00)

Cosmos 1745 Rocket - Pass Details

Date: 23 May 2024
Orbit: 953 x 996 km, 83.0° (Epoch: 12 June)

Event Time Altitude Azimuth Distance (km) Brightness Sun altitude
Exits shadow 00:48:37 17° 175° (S) 2,219 5.3 -14.8°
Maximum altitude 00:53:27 70° 95° (E) 1,036 4.2 -14.5°
Drops below altitude 10° 00:59:43 10° 14° (NNE) 2,753 7.7 -14.1°
Sets 01:02:16 0° 12° (NNE) 3,711 8.7 -13.9°
